DELTA 1 DEB, 42636

Orbit data source: Space-Track

DELTA 1 DEB, 42636 is space debris in SSO originally from a launch on Thu, 12 Jun 1975 UTC launched from the Air Force Western Test Range (AFWTR). Debris objects in space refer to the collection of defunct objects orbiting the Earth. Examples of debris include non-operational satellites, rocket bodies, and fragments generated from explosions, collisions, or faulty payload assembly.

Loading next visibility...
Identifier
42636, 1975-052LV
Orbit
SSO
Country
Flag of USUS
Related business
Manufacturer
Unknown
Mission
Spacecraft
Bus & Motor
Unknown
Mass
Unknown
Launch date (UTC)
1975-06-12 (50 years ago)
Launch vehicle
Unknown
Launch site
Air Force Western Test Range (AFWTR)
Object type
Payload
Rocket body
Debris
Shape & HBR
Unknown shape, 0.1 m
Radar Cross Section
Small (<0.1 m²)

Expand to show TLE details & history
Last TLE update: 21 hours ago

TLE from 21 hours ago
0 DELTA 1 DEB
1 42636U 75052LV  25305.53571821  .00000305  00000-0  79580-3 0  9997
2 42636  99.6820 145.2589 0131665 344.3321  42.4531 13.22110913575888
Epoch: 2025-11-01T12:51Z
TLE epoch observation values (Epoch: 2025-11-01T12:51:26.053Z)
Latitude
27.42614°
Longitude
-93.71724°
Altitude
1,107.085 km
Speed
7.336 km/s
True Right ascension
09h 20m 49s
True Declination
27° 17' 32"
Sunlit
Object was in daylight at epoch
Visualization orbit readout
Latitude
Unknown
Longitude
Unknown
Altitude
Unknown
Speed
Unknown
Apparent Right ascension
Unknown
Apparent Declination
Unknown
Sunlit
N/A
Visualization observer readout
Local Sidereal Time
05:11:02
Azimuth
Unknown
Elevation
Unknown
Doppler factor
Unknown
Orbital elements
Apogee altitude
1,273.44 km
Perigee altitude
1,074.57 km
Semi-major axis
7,552.142 km
Eccentricity
0.01317
Inclination
99.682°
RAAN
145.2589°
Arg. of periapsis
344.3321°
True anomaly
43.48396°
Mean anomaly
42.4531°
Eccentric anomaly
42.96727°
Mean motion
3.30703 °/min
Orbital period
108.86 mins
BSTAR
0.0007958
Loading maneuver chart data...
Computing Atmospheric mass density...
Loading historical data...
Loading historical data...
Loading historical data...
Loading historical data...
Loading historical data...
Loading historical data...
Loading historical data...

Documentation

Showing up to 5 results
|